Weather in Svyatozero

Russia / Republic of Karelia     61°33′23″N   33°36′47″E
temp.,
°C
wind,
m/s
gust,
m/s
humid.,
%
clouds,
%
prec.,
mm/h
press.,
hPa
HPBL,
m
1 march, mon
mon100:000wsw3697100 0.0 1017414
03:000wsw4995100 0.0 1017520
06:000w41097100 0.0 1014623
09:00+1w41098100 0.0 1013514
12:00+1w51197100 0.0 1011682
15:00+1w51297100 0.0 1010692
18:00+1w51399100 0.1 1008769
21:00+1w51394100 0.2 1006849
2 march, tue
tue200:000wnw5129097 0.1 1005965
03:00−2wnw4139183 0.1 1006611
06:00−3wnw4139110 0.0 1005565
09:00−3wnw4129238 0.0 1006636
12:00−1nw5108797 0.1 1006898
15:00−1nnw6127185 0.2 10091628
18:00−4nw4138053 0.0 1011838
21:00−6nw3118836 0.0 1013302
3 march, wed
wed300:00−7wnw399247 0.0 1013225
03:00−6w3109739 0.0 1013327
06:00−5wnw4129580 0.0 1011486
09:00−4wnw4119383 0.1 1011548
12:00−2wnw489094 0.0 1010626
15:00−1wnw498596 0.1 1009760
18:00−2wsw389499 0.0 1005615
21:00−2ssw51197100 2.4 999749
4 march, thu
thu400:000w71494100 1.7 9941221
03:00−3nnw71389100 1.9 994931
06:00−4nnw499698 0.9 995564
09:00−5n499499 1.1 996567
12:00−5n4791100 0.1 998586
15:00−5n4787100 0.2 1000848
18:00−7nnw389193 0.1 1001412
21:00−10nw289587 0.1 1003225
5 march, fri
fri500:00−10nw269750 0.1 1004178
03:00−10nw269671 0.2 1006203
06:00−11nnw129797 0.3 100759
09:00−11nnw129790 0.4 100891
12:00−8n1287100 0.1 1010479
15:00−7n2287100 0.3 1011509
18:00−10nne2394100 0.2 101373
21:00−13ne129697 0.3 101535